Rochelle, IL

12:49 PM CDT on March 29, 2017 (GMT -0500)
Rochelle

Weather History for KRPJ - February, 2013

Change the Weather History Date:

Friday, February 22, 2013

  Actual Average (KRFD) Record (KRFD)
Temperature  
Mean Temperature 28 °F -  
Max Temperature 32 °F 37 °F 70 °F (2017)
Min Temperature 23 °F 21 °F -17 °F (1936)
Degree Days  
Heating Degree Days 38    
Moisture  
Dew Point 25 °F    
Average Humidity 92    
Maximum Humidity 96    
Minimum Humidity 86    
Precipitation  
Precipitation 0.08 in - - ()
Sea Level Pressure  
Sea Level Pressure 29.85 in    
Wind  
Wind Speed 15 mph (South)    
Max Wind Speed 22 mph    
Max Gust Speed 29 mph    
Visibility 7 miles    
Events Rain , Snow    
Averages and records for this station are not official NWS values.
T = Trace of Precipitation, MM = Missing Value Source: NWS Daily Summary

Daily Weather History Graph

Daily Weather History Graph

Search for Another Location

Airport or City:

Trip Planner

Search our weather history database for the weather conditions in past years. The results will help you decide how hot, cold, wet, or windy it might be!

Date:

Astronomy

Feb. 22, 2013 Rise Set
Actual Time 6:41 AM CST 5:38 PM CST
Civil Twilight 6:13 AM CST 6:06 PM CST
Nautical Twilight 5:41 AM CST 6:39 PM CST
Astronomical Twilight 5:08 AM CST 7:11 PM CST
Moon 2:48 PM CST (2/22) 4:28 AM CST (2/22)
Length of Visible Light 11h 53m
Length of Day
10h 56m
Waxing Gibbous, 90% of the Moon is Illuminated
Feb 22
Waxing Gibbous
Feb 25
Full
Mar 4
Last Quarter
Mar 11
New
Mar 19
First Quarter

Hourly Weather History & Observations

Time (CST) Temp. Windchill Dew Point Humidity Pressure Visibility Wind Dir Wind Speed Gust Speed Precip Events Conditions
12:15 AM 25.3 °F 14.1 °F 24.3 °F 96% 29.93 in 1.2 mi East 12.7 mph 18.4 mph N/A Snow Light Snow
12:35 AM 25.3 °F 14.1 °F 23.9 °F 94% 29.92 in 1.5 mi East 12.7 mph 19.6 mph N/A Snow Light Snow
12:55 AM 25.3 °F 14.7 °F 23.9 °F 94% 29.91 in 1.0 mi East 11.5 mph 20.7 mph N/A Snow Snow
1:15 AM 25.2 °F 11.6 °F 23.9 °F 95% 29.90 in 1.5 mi East 18.4 mph - N/A Snow Light Snow
1:35 AM 25.2 °F 12.0 °F 23.9 °F 95% 29.89 in 1.8 mi East 17.3 mph 24.2 mph N/A Snow Light Snow
1:55 AM 25.2 °F 14.4 °F 23.9 °F 95% 29.89 in 2.0 mi East 11.5 mph - N/A Snow Light Snow
2:15 AM 25.2 °F 12.9 °F 23.7 °F 94% 29.89 in 2.0 mi ESE 15.0 mph - N/A Snow Light Snow
2:35 AM 24.8 °F 11.9 °F 23.5 °F 95% 29.88 in 1.8 mi East 16.1 mph - N/A Snow Light Snow
2:55 AM 24.8 °F 11.5 °F 23.4 °F 94% 29.87 in 2.5 mi East 17.3 mph 21.9 mph N/A Snow Light Snow
3:15 AM 24.4 °F 12.4 °F 22.8 °F 94% 29.87 in 2.5 mi East 13.8 mph - N/A Snow Light Snow
3:35 AM 23.9 °F 9.9 °F 22.1 °F 93% 29.86 in 7.0 mi East 18.4 mph - N/A Rain Light Freezing Rain
3:55 AM 24.3 °F 10.8 °F 22.1 °F 91% 29.85 in 10.0 mi East 17.3 mph - N/A   Overcast
4:15 AM 24.3 °F 12.7 °F 22.5 °F 93% 29.84 in 10.0 mi East 12.7 mph - N/A   Overcast
4:35 AM 23.9 °F 12.3 °F 22.1 °F 93% 29.83 in 10.0 mi East 12.7 mph - N/A   Overcast
4:55 AM 23.9 °F 10.8 °F 21.9 °F 92% 29.82 in 10.0 mi East 16.1 mph - N/A   Overcast
5:15 AM 23.9 °F 11.2 °F 21.9 °F 92% 29.82 in 10.0 mi East 15.0 mph 24.2 mph N/A   Overcast
5:35 AM 23.9 °F 11.7 °F 21.9 °F 92% 29.82 in 10.0 mi East 13.8 mph 21.9 mph N/A   Overcast
5:55 AM 23.9 °F 11.7 °F 21.9 °F 92% 29.81 in 10.0 mi East 13.8 mph 19.6 mph N/A   Overcast
6:15 AM 24.1 °F 11.5 °F 22.1 °F 92% 29.81 in 10.0 mi East 15.0 mph - N/A   Overcast
6:35 AM 24.3 °F 11.7 °F 22.1 °F 91% 29.80 in 10.0 mi East 15.0 mph - N/A   Overcast
6:55 AM 24.4 °F 10.6 °F 22.3 °F 91% 29.80 in 10.0 mi ESE 18.4 mph - N/A   Overcast
7:15 AM 24.4 °F 11.0 °F 22.5 °F 92% 29.79 in 10.0 mi East 17.3 mph - N/A   Overcast
7:35 AM 24.6 °F 12.7 °F 22.6 °F 92% 29.80 in 10.0 mi ESE 13.8 mph - N/A   Overcast
7:55 AM 24.8 °F 13.4 °F 22.8 °F 92% 29.80 in 10.0 mi ESE 12.7 mph - N/A   Overcast
8:15 AM 24.8 °F 12.4 °F 23.0 °F 93% 29.80 in 10.0 mi ESE 15.0 mph - N/A   Overcast
8:35 AM 24.8 °F 12.4 °F 23.4 °F 94% 29.80 in 7.0 mi ESE 15.0 mph - N/A   Overcast
8:55 AM 24.8 °F 13.4 °F 23.5 °F 95% 29.80 in 4.0 mi ESE 12.7 mph - N/A   Overcast
9:15 AM 25.2 °F 13.3 °F 23.9 °F 95% 29.80 in 4.0 mi ESE 13.8 mph - N/A   Light Freezing Rain
9:35 AM 25.7 °F 14.6 °F 24.6 °F 96% 29.80 in 2.0 mi SE 12.7 mph - N/A Rain Light Freezing Rain
9:55 AM 26.4 °F 16.6 °F 25.5 °F 96% 29.80 in 2.0 mi SE 10.4 mph - N/A Rain Light Freezing Rain
10:15 AM 27.1 °F 17.5 °F 26.2 °F 96% 29.81 in 1.8 mi SSE 10.4 mph - N/A   Light Freezing Rain
10:35 AM 28.2 °F 18.3 °F 27.3 °F 96% 29.81 in 1.2 mi SSE 11.5 mph - N/A Snow Light Snow
10:55 AM 28.8 °F 19.5 °F 27.5 °F 95% 29.81 in 1.0 mi SSE 10.4 mph - N/A Snow Light Snow
11:15 AM 29.7 °F 21.3 °F 28.2 °F 94% 29.81 in 2.0 mi South 9.2 mph - N/A Snow Light Snow
11:35 AM 29.8 °F 21.5 °F 28.4 °F 94% 29.80 in 3.0 mi South 9.2 mph - 0.01 in Rain Light Freezing Rain
11:55 AM 30.2 °F 21.9 °F 29.1 °F 96% 29.80 in 5.0 mi South 9.2 mph - 0.04 in   Overcast
12:15 PM 31.5 °F 22.9 °F 29.8 °F 94% 29.80 in 7.0 mi SSW 10.4 mph - 0.04 in Rain Light Freezing Rain
12:35 PM 32.0 °F 24.2 °F 30.2 °F 93% 29.79 in 7.0 mi SSW 9.2 mph - 0.04 in Rain Light Rain
1:15 PM 32.0 °F 22.5 °F 30.0 °F 92% 29.79 in 10.0 mi WSW 12.7 mph - N/A Rain Light Rain
1:35 PM 32.0 °F 20.8 °F 29.7 °F 91% 29.79 in 10.0 mi SW 17.3 mph - N/A   Overcast
1:55 PM 32.0 °F 19.8 °F 29.1 °F 89% 29.80 in 10.0 mi WSW 20.7 mph - N/A   Overcast
2:15 PM 31.6 °F 19.7 °F 28.4 °F 88% 29.81 in 10.0 mi WSW 19.6 mph - N/A   Overcast
2:35 PM 31.1 °F 18.3 °F 27.7 °F 87% 29.82 in 10.0 mi WSW 21.9 mph 28.8 mph N/A   Overcast
2:55 PM 30.7 °F 17.8 °F 27.3 °F 87% 29.82 in 10.0 mi WSW 21.9 mph 26.5 mph N/A   Overcast
3:15 PM 30.6 °F 17.9 °F 27.0 °F 86% 29.83 in 10.0 mi WSW 20.7 mph 24.2 mph N/A   Overcast
3:35 PM 30.2 °F 17.1 °F 26.8 °F 87% 29.83 in 10.0 mi WSW 21.9 mph - N/A   Overcast
3:55 PM 29.8 °F 16.6 °F 26.6 °F 88% 29.83 in 7.0 mi WSW 21.9 mph 26.5 mph N/A   Overcast
4:15 PM 29.3 °F 16.2 °F 26.8 °F 90% 29.84 in 7.0 mi WSW 20.7 mph 24.2 mph N/A   Overcast
4:35 PM 29.3 °F 16.2 °F 26.6 °F 90% 29.84 in 10.0 mi WSW 20.7 mph - N/A   Overcast
4:55 PM 29.3 °F 17.0 °F 26.6 °F 90% 29.85 in 10.0 mi WSW 18.4 mph - N/A   Overcast
5:15 PM 29.1 °F 16.7 °F 26.4 °F 90% 29.85 in 7.0 mi WSW 18.4 mph - N/A   Overcast
5:35 PM 28.9 °F 17.3 °F 26.1 °F 89% 29.86 in 7.0 mi WSW 16.1 mph - N/A   Light Freezing Rain
5:55 PM 28.8 °F 17.0 °F 25.7 °F 88% 29.86 in 7.0 mi WSW 16.1 mph - N/A Rain Light Freezing Rain
6:15 PM 28.2 °F 16.8 °F 25.7 °F 90% 29.87 in 7.0 mi WSW 15.0 mph - N/A Rain Light Freezing Rain
6:35 PM 28.0 °F 16.1 °F 25.7 °F 91% 29.87 in 5.0 mi WSW 16.1 mph - N/A Snow Light Snow
6:55 PM 27.9 °F 16.3 °F 25.7 °F 92% 29.88 in 7.0 mi WSW 15.0 mph - N/A Rain Light Freezing Rain
7:15 PM 27.9 °F 16.3 °F 25.7 °F 92% 29.89 in 7.0 mi WSW 15.0 mph - N/A Rain Light Freezing Rain
7:35 PM 27.9 °F 15.9 °F 25.2 °F 90% 29.89 in 5.0 mi WSW 16.1 mph - N/A Rain Light Freezing Rain
7:55 PM 27.5 °F 15.0 °F 24.8 °F 90% 29.89 in 7.0 mi WSW 17.3 mph - N/A Rain Light Freezing Rain
8:15 PM 27.5 °F 15.4 °F 24.8 °F 90% 29.89 in 7.0 mi WSW 16.1 mph - N/A   Overcast
8:35 PM 27.5 °F 14.6 °F 25.0 °F 90% 29.90 in 7.0 mi WSW 18.4 mph - N/A   Overcast
8:55 PM 27.3 °F 15.2 °F 24.8 °F 90% 29.90 in 7.0 mi WSW 16.1 mph - N/A   Overcast
9:15 PM 27.1 °F 15.4 °F 24.8 °F 91% 29.90 in 7.0 mi WSW 15.0 mph - N/A   Overcast
9:35 PM 26.8 °F 14.9 °F 24.6 °F 92% 29.90 in 7.0 mi WSW 15.0 mph - N/A   Overcast
9:55 PM 27.0 °F 15.2 °F 24.8 °F 92% 29.90 in 7.0 mi WSW 15.0 mph - N/A   Overcast
10:15 PM 27.0 °F 15.2 °F 25.0 °F 92% 29.90 in 7.0 mi WSW 15.0 mph - N/A   Overcast
10:35 PM 26.6 °F 14.3 °F 24.8 °F 93% 29.91 in 7.0 mi WSW 16.1 mph - N/A   Overcast
10:55 PM 26.6 °F 14.7 °F 24.8 °F 93% 29.91 in 7.0 mi WSW 15.0 mph - N/A Rain Light Freezing Rain
11:15 PM 26.6 °F 15.7 °F 24.6 °F 92% 29.90 in 7.0 mi WSW 12.7 mph - N/A Rain Light Freezing Rain
11:35 PM 26.2 °F 14.7 °F 24.3 °F 92% 29.90 in 7.0 mi WSW 13.8 mph - N/A   Overcast
11:55 PM 25.7 °F 14.6 °F 23.9 °F 93% 29.90 in 7.0 mi WSW 12.7 mph - N/A   Overcast